Regional Weather Roundup
Issued by NWS

Home | Current Version | Previous Version | Graphics & Text | Print | Product List | Glossary Off
Versions: 1 2 3 4 5 6 7 8 9 10 11 12 13 14 15 16 17 18 19 20 21 22 23 24 25 26 27 28 29 30 31 32 33 34 35 36 37 38 39 40 41 42 43 44 45 46 47 48 49 50

000
ASUS43 KMKX 210021
RWRWI

WISCONSIN REGIONAL WEATHER ROUNDUP
NATIONAL WEATHER SERVICE MILWAUKEE/SULLIVAN WI
700 PM CDT SUN APR 20 2014

NOTE: "FAIR" INDICATES FEW OR NO CLOUDS BELOW 12,000 FEET WITH NO
SIGNIFICANT WEATHER AND/OR OBSTRUCTIONS TO VISIBILITY.

WIZ001-002-006>008-014>016-023>028-210100-
NORTHWEST WISCONSIN

CITY           SKY/WX    TMP DP  RH WIND       PRES   REMARKS
SUPERIOR ARPT  CLEAR     55  35  47 NE3       29.98S
6HR MIN TEMP:  55; 6HR MAX TEMP:  65;

ASHLAND        CLEAR     50  39  66 N6        30.01F
6HR MIN TEMP:  50; 6HR MAX TEMP:  60;

HAYWARD        CLEAR     67  28  23 VRB3      29.98S
6HR MIN TEMP:  66; 6HR MAX TEMP:  71;

SIREN          CLEAR     68  29  23 N6        29.97F
6HR MIN TEMP:  65; 6HR MAX TEMP:  70;

RICE LAKE      CLEAR     68  46  46 SE6       29.98S
6HR MIN TEMP:  68; 6HR MAX TEMP:  73;

LADYSMITH      CLEAR     66  52  61 S9        30.00S
6HR MIN TEMP:  66; 6HR MAX TEMP:  71;

EAU CLAIRE     CLOUDY    64  54  69 S8        29.97F
6HR MIN TEMP:  64; 6HR MAX TEMP:  69;

MENOMONIE      CLEAR     67  53  61 S9        29.98R
6HR MIN TEMP:  64; 6HR MAX TEMP:  71;

NEW RICHMOND   CLEAR     69  48  46 S7        29.96S
6HR MIN TEMP:  67; 6HR MAX TEMP:  73;

OSCEOLA        SUNNY     71  35  27 N7        29.98S
6HR MIN TEMP:  69; 6HR MAX TEMP:  75;

$$

WIZ003>005-009-010-017-018-210100-
NORTH CENTRAL WISCONSIN

CITY           SKY/WX    TMP DP  RH WIND       PRES   REMARKS
WOODRUFF       CLEAR     62  49  62 S5        30.00
6HR MIN TEMP:  62; 6HR MAX TEMP:  72;

RHINELANDER    MOCLDY    57  49  74 S7        30.01S
6HR MIN TEMP:  57; 6HR MAX TEMP:  64;

EAGLE RIVER    CLEAR     61  48  62 SW5       29.99S
6HR MIN TEMP:  61; 6HR MAX TEMP:  68;

LAND O LAKES   PTCLDY    61  34  36 N6        30.01R
6HR MIN TEMP:  61; 6HR MAX TEMP:  69;

PHILLIPS       CLEAR     62  52  68 S8        29.98R
6HR MIN TEMP:  62; 6HR MAX TEMP:  69;

TOMAHAWK       CLOUDY    56  49  79 CALM      30.01S
6HR MIN TEMP:  56; 6HR MAX TEMP:  65;

MEDFORD        CLOUDY    56  53  89 S3        30.00F
6HR MIN TEMP:  56; 6HR MAX TEMP:  60;

MERRILL        CLOUDY    57  52  84 CALM      30.01S
6HR MIN TEMP:  57; 6HR MAX TEMP:  62;

$$

WIZ029-030-035-036-043>047-210100-
CENTRAL WISCONSIN

CITY           SKY/WX    TMP DP  RH WIND       PRES   REMARKS
WAUSAU         CLOUDY    57  52  83 CALM      30.00F
6HR MIN TEMP:  56; 6HR MAX TEMP:  61; 6HR PCP: TRACE;

MOSINEE        CLOUDY    57  54  88 CALM      30.03
MARSHFIELD     CLOUDY    59  54  83 S5        30.01F
6HR MIN TEMP:  54; 6HR MAX TEMP:  61; 6HR PCP:  0.02;

STEVENS POINT  CLOUDY    57  52  83 CALM      30.02F
6HR MIN TEMP:  51; 6HR MAX TEMP:  59;

WAUPACA        CLOUDY    61  54  77 CALM      30.03S
WAUTOMA        MOCLDY    59  57  92 CALM      30.01F
6HR MIN TEMP:  56; 6HR MAX TEMP:  60; 6HR PCP:  0.07;

WISC RAPIDS    CLOUDY    59  52  77 NW3       30.02F
6HR MIN TEMP:  53; 6HR MAX TEMP:  61; 6HR PCP:  0.01;

CAMP DOUGLAS   MOCLDY    59  59 100 E3        30.00F
6HR MIN TEMP:  54; 6HR MAX TEMP:  60; 6HR PCP:  0.14;

$$

WIZ011>013-019>022-031-037>040-048>050-210100-
NORTHEAST WISCONSIN

CITY           SKY/WX    TMP DP  RH WIND       PRES   REMARKS
ANTIGO         CLOUDY    54  50  89 S5        30.02F
6HR MIN TEMP:  54; 6HR MAX TEMP:  60;

STURGEON BAY   CLOUDY    46  39  76 SE5       30.05S
6HR MIN TEMP:  39; 6HR MAX TEMP:  46; 6HR PCP:  0.01;

GREEN BAY      CLOUDY    58  53  84 CALM      30.04F
6HR MIN TEMP:  52; 6HR MAX TEMP:  58; 6HR PCP:  0.06;

MANITOWOC      CLOUDY    43  39  86 SE7       30.05F
6HR MIN TEMP:  43; 6HR MAX TEMP:  51; 6HR PCP: TRACE;

APPLETON       MOCLDY    55  52  88 CALM      30.03F
CLINTONVILLE   CLOUDY    59  52  77 CALM      30.03F
OSHKOSH        CLOUDY    55  50  83 CALM      30.02F
6HR MIN TEMP:  55; 6HR MAX TEMP:  65; 6HR PCP:  0.06;

$$

WIZ032>034-041-042-053>061-210100-
SOUTHWEST WISCONSIN

CITY           SKY/WX    TMP DP  RH WIND       PRES   REMARKS
LA CROSSE      MOCLDY    60  54  80 CALM      29.97F
6HR MIN TEMP:  54; 6HR MAX TEMP:  62; 6HR PCP:  0.05;

SPARTA         CLOUDY    60  54  78 CALM      30.01F
6HR MIN TEMP:  55; 6HR MAX TEMP:  61; 6HR PCP:  0.04;

VIROQUA        MOCLDY    60  60  99 NE6       29.98F
6HR MIN TEMP:  54; 6HR MAX TEMP:  62; 6HR PCP:  0.17;

BOSCOBEL       CLOUDY    61  56  83 NE3       29.95F
6HR MIN TEMP:  60; 6HR MAX TEMP:  70; 6HR PCP:  0.06;

PRAIRIE DU CHI CLOUDY    58  56  90 CALM      29.95F FOG
6HR MIN TEMP:  58; 6HR MAX TEMP:  64; 6HR PCP:  0.19;

PLATTEVILLE    FAIR      73  48  41 E6        30.01S
6HR MIN TEMP:  73; 6HR MAX TEMP:  80;

$$

WIZ056-057-062-063-064-067-068-210100-
SOUTH CENTRAL WISCONSIN

CITY           SKY/WX    TMP DP  RH WIND       PRES   REMARKS
BARABOO/DELLS  CLOUDY    58  55  88 CALM      29.99F
6HR MIN TEMP:  58; 6HR MAX TEMP:  65; 6HR PCP:  0.05;

LONE ROCK      CLOUDY    61  56  83 E7        29.97F
6HR MIN TEMP:  61; 6HR MAX TEMP:  71; 6HR PCP: TRACE;

WATERTOWN      CLOUDY    67  50  53 CALM      30.00F
6HR MIN TEMP:  67; 6HR MAX TEMP:  77;

MADISON        CLOUDY    66  51  58 SE7       30.00F
6HR MIN TEMP:  66; 6HR MAX TEMP:  78; 6HR PCP: TRACE;

MIDDLETON      MOCLDY    68  44  41 CALM      30.00F
6HR MIN TEMP:  67; 6HR MAX TEMP:  78;

MONROE         MOCLDY    72  44  36 S10       30.00F
6HR MIN TEMP:  74; 6HR MAX TEMP:  79;

JANESVILLE     CLEAR     77  37  24 SW12      30.00F
$$

WIZ051-052-058>065-066-070>072-210100-
SOUTHEAST WISCONSIN

CITY           SKY/WX    TMP DP  RH WIND       PRES   REMARKS
MILWAUKEE      CLOUDY    67  39  35 S12       30.04F
6HR MIN TEMP:  67; 6HR MAX TEMP:  75;

WAUKESHA       MOCLDY    73  41  31 SW9       30.02F
MILWAUKEE/TIMM CLOUDY    70  37  30 SE14G21   30.03F
RACINE         MOCLDY    60  37  42 S12       30.05F
6HR MIN TEMP:  59; 6HR MAX TEMP:  66;

BURLINGTON     MOCLDY    71  40  32 S6        30.02F
6HR MIN TEMP:  71; 6HR MAX TEMP:  78;

KENOSHA        PTCLDY    66  39  37 SE12      30.04F
6HR MIN TEMP:  66; 6HR MAX TEMP:  77;

FOND DU LAC    CLOUDY    56  48  74 CALM      30.02F
6HR MIN TEMP:  56; 6HR MAX TEMP:  69; 6HR PCP:  0.02;

SHEBOYGAN      CLOUDY    55  41  59 CALM      30.04F
6HR MIN TEMP:  54; 6HR MAX TEMP:  63; 6HR PCP: TRACE;

WEST BEND      LGT RAIN  61  41  48 NE7       30.03S
JUNEAU         DRIZZLE   62  46  56 NE6       30.03F
6HR MIN TEMP:  62; 6HR MAX TEMP:  72;

$$

LSZ147-162-210100-
LAKE SUPERIOR

STATION/POSITION TIME  TEMP    WIND        PRES    WAVE
                       AIR SEA DIR/SP/G            HT/PER
                 (UTC) (F)     (DEG/KT/KT) (MB)    (FT/S)
DEVILS ISLAND    0000   51     100/  2/  5 1016.5R
PORT WING        2300           40/  2/  4 1015.9S
SAXON HARBOR     2300             CALM     1016.3S
$$

LMZ867-665-643>646-210100-
LAKE MICHIGAN

STATION/POSITION TIME  TEMP    WIND        PRES    WAVE
                       AIR SEA DIR/SP/G            HT/PER
                 (UTC) (F)     (DEG/KT/KT) (MB)    (FT/S)
NORTHPORT PIER   2300   43     150/  6/  8 1017.3F
SISTER BAY       2309   49     170/  9/ 11   N/A
KEWAUNEE LAKESHO 2300   39     170/  7/  8 1018.8F
SHEBOYGAN LAKESH 0000   44      40/  5/  6 1018.1F
PORT WASHINGTON  2300   48     160/  4/  7 1017.9F
MILWAUKEE LAKESH 0000   51     150/ 11/ 13   N/A
KENOSHA   LAKESH 0000   53     180/ 15/ 18   N/A
$$

TC  - TEMPERATURE IN CELSIUS
VSB - VISIBILITY IN STATUTE MILES
WCI - WIND CHILL INDEX
HX  - HEAT INDEX




USA.gov is the U.S. government's official web portal to all federal, state and local government web resources and services.